Das Wetter in  D-61279 Heinzenberg / Taunus





Wetter Minimum- & Maximum-Werte im Oktober 2013

Standort: Heinzenberg / Taunus - Höhe 297 m         8 24' 1" Ost 50 21' 51" Nord
(   3-stündige Aktualisierung    letzte Aktualisierung um 19:04 am 31.10.2013  )


Messgrösse

Minimum

Maximum

Durchschnitt

Temperatur West /
Luftfeuchte West
Anklicken für Monats-Diagramm

-1,2 C

07:22
31.10.2013

42 %

16:55
03.10.2013

23,1 C

16:44
22.10.2013

92 %

09:28
06.10.2013

Temp

10,9 C

Feuchte

80 %

Temperatur Ost /
Luftfeuchte Ost
Anklicken für Monats-Diagramm

-1,0 C

07:02
31.10.2013

--

--
--

22,9 C

14:44
22.10.2013

--

--
--

10,9 C

--

Luftdruck Anklicken für Monats-Diagramm

999,4 hPa

11:24
28.10.2013

1028,7 hPa

08:02
31.10.2013

1016,4 hPa

Taupunkt

-3,4 C

07:22
31.10.2013

14,9 C

13:47
26.10.2013

7,6 C

Windchill
( gefühlte Temperatur )

-5,5 C

09:05
03.10.2013

22,9 C

16:34
22.10.2013

8,6 C

Windgeschwindigkeit /
Windrichtung
Anklicken für Monats-Diagramm

---

72,3 km/h / W-SW

14:03
27.10.2013

9,6 km/h
W-SW

Helligkeit /
Sonnenschein
Anklicken für Monats-Diagramm
Anklicken für Monats-Diagramm

Sonnenschein:

93:15 Stunden

Max: 8:30 Std am
03.10.2013

74,1 klux

12:27
10.10.2013

16,9 klux

Solarstrahlung Anklicken für Monats-Diagramm

---

507 W/m

12:27
10.10.2013

126 W/m

Regenmenge
    Oktober 2013
Anklicken für Monats-Diagramm

Insgesamt 126,2 l/m

in 82:59 Stunden
an 19 Tagen

54,6 l/m

07:07
05.10.2013

Gesamtmenge

126,2 l/m

Regen-Tage
    Oktober 2013
Anklicken für Monats-Diagramm

>   0 mm/Tag

>   2 mm/Tag

>   5 mm/Tag

> 10 mm/Tag

> 20 mm/Tag

19 Tage     
9 Tage     
7 Tage     
3 Tage     
  1 Tag     

Eisige Tage Oktober 2013 / 2012

Tmin ≤ -10C     

0 Tage

/

0 Tage

Eistage Oktober 2013 / 2012

Tmax <     0C     

0 Tage

/

0 Tage

Frosttage Oktober 2013 / 2012

Tmin ≤     0C     

  1 Tag

/

4 Tage

Kalte Tage Oktober 2013 / 2012

Tmax <   10C     

3 Tage

/

8 Tage

Warme Tage Oktober 2013 / 2012

Tmax ≥   20C     

  1 Tag

/

4 Tage

Sommertage Oktober 2013 / 2012

Tmax ≥   25C     

0 Tage

/

0 Tage

Heisse Tage Oktober 2013 / 2012

Tmax ≥   30C     

0 Tage

/

0 Tage


Monatsdiagramm Oktober 2013

Die Kurven zeigen den Durchschnittswert des jeweiligen Tages an


Wetter-Monatsübersicht Oktober 2013
Datum
  Temperatur
   Luftdruck
   Wind
  Regen
   Luftfeuchte
   Helligkeit

Sonnen-
schein


Temp.

Min.
Temp.

Max.
Temp.


Luftdruck

Min.
Luftdruck

Max.
Luftdruck

-Geschw.
Haupt-Richtg.

Max.
Wind

Menge /
Dauer


Feuchte

Min.
Feuchte

Max.
Feuchte


Helligkeit

Max.
Helligkeit

1.
Oktober
10,6 C4,4 C
23:59
17,2 C
17:28
1013,6 hPa1011,6 hPa
00:03
1018,6 hPa
23:34
4,1 km/h
NO
23,5 km/h
16:08  
---
65 %50 %
17:13
74 %
23:59
22,4 klux61,1 klux
13:43
5:05 Std 
2.
Oktober
7,5 C0,3 C
07:24
15,2 C
17:34
1020,3 hPa1017,6 hPa
00:14
1022,5 hPa
23:50
8,2 km/h
O-SO
36,7 km/h
15:44  
---
67 %51 %
17:34
84 %
09:14
29,4 klux61,0 klux
13:14
7:35 Std 
3.
Oktober
9,9 C4,0 C
08:05
15,6 C
16:55
1021,2 hPa1019,3 hPa
16:55
1022,8 hPa
08:05
15,5 km/h
O-SO
35,7 km/h
14:10  
---
54 %42 %
16:55
65 %
08:10
31,7 klux61,0 klux
13:00
8:30 Std 
4.
Oktober
10,5 C6,9 C
08:01
14,9 C
17:26
1019,6 hPa1017,9 hPa
22:57
1021,2 hPa
10:21
12,5 km/h
O-SO
34,3 km/h
03:41  
1,8 l/m
1:05 Stunden
68 %49 %
00:01
79 %
23:12
17,4 klux48,5 klux
15:41
2:20 Std 
5.
Oktober
10,1 C9,2 C
08:42
10,8 C
23:33
1018,0 hPa1015,9 hPa
05:57
1020,9 hPa
21:47
0,1 km/h
NW
4,0 km/h
16:12  
54,6 l/m
21:21 Stunden
88 %80 %
00:02
91 %
17:07
3,4 klux7,1 klux
11:57
--- 
6.
Oktober
12,2 C10,8 C
00:03
13,4 C
17:13
1024,5 hPa1020,9 hPa
01:58
1027,0 hPa
23:29
0,8 km/h
NW
7,3 km/h
13:43  
2,3 l/m
4:50 Stunden
90 %88 %
13:43
92 %
09:28
7,75 klux21,20 klux
12:58
--- 
7.
Oktober
13,1 C10,8 C
08:29
17,7 C
17:09
1026,5 hPa1025,2 hPa
17:09
1027,1 hPa
08:29
0,8 km/h
N-NO
8,1 km/h
15:19  
---
88 %73 %
17:09
92 %
03:29
13,8 klux60,1 klux
13:24
1:15 Std 
8.
Oktober
13,0 C11,4 C
08:00
15,0 C
13:05
1025,2 hPa1024,5 hPa
13:05
1026,0 hPa
08:00
1,1 km/h
NW
9,2 km/h
14:35  
---
86 %77 %
14:35
91 %
06:35
9,3 klux22,9 klux
12:10
--- 
9.
Oktober
12,8 C10,5 C
23:32
16,5 C
15:26
1018,9 hPa1011,6 hPa
22:57
1024,9 hPa
00:41
6,9 km/h
W-SW
28,3 km/h
20:51  
4,4 l/m
4:05 Stunden
85 %71 %
13:11
90 %
21:36
13,5 klux64,6 klux
13:01
25 Min 
10.
Oktober
7,8 C4,4 C
23:58
10,6 C
00:17
1009,1 hPa1006,4 hPa
03:52
1012,4 hPa
23:58
8,1 km/h
W-SW
30,9 km/h
04:17  
7,0 l/m
6:40 Stunden
87 %78 %
15:42
91 %
06:07
17,9 klux74,1 klux
12:27
2:25 Std 
11.
Oktober
5,5 C3,5 C
23:54
7,4 C
13:08
1014,9 hPa1012,3 hPa
05:38
1018,7 hPa
23:54
0,5 km/h
NW
7,6 km/h
13:18  
5,8 l/m
5:45 Stunden
90 %89 %
00:03
92 %
11:03
6,1 klux20,3 klux
09:43
--- 
12.
Oktober
4,9 C3,0 C
01:49
6,8 C
16:24
1018,6 hPa1016,3 hPa
17:59
1020,8 hPa
09:09
1,8 km/h
NO
13,3 km/h
03:09  
---
10 Minuten
91 %88 %
16:19
92 %
03:29
6,4 klux15,7 klux
12:49
--- 
13.
Oktober
6,3 C4,1 C
23:46
9,4 C
16:35
1019,1 hPa1017,5 hPa
00:15
1020,5 hPa
10:00
10,7 km/h
O-SO
27,3 km/h
12:20  
---
84 %74 %
16:45
89 %
00:00
15,6 klux57,0 klux
14:15
1:29 Std 
14.
Oktober
9,3 C3,2 C
01:46
13,7 C
13:31
1016,6 hPa1012,4 hPa
23:57
1019,7 hPa
00:21
8,0 km/h
SO
31,1 km/h
23:42  
0,2 l/m
15 Minuten
82 %65 %
13:46
91 %
09:31
21,9 klux61,7 klux
12:56
3:50 Std 
15.
Oktober
9,9 C7,8 C
21:52
13,0 C
00:02
1009,8 hPa1007,5 hPa
17:17
1012,6 hPa
01:27
11,2 km/h
W-SW
36,9 km/h
15:42  
14,4 l/m
8:56 Stunden
86 %76 %
12:37
90 %
05:32
22,3 klux66,9 klux
14:27
4:25 Std 
16.
Oktober
8,8 C6,3 C
07:18
11,8 C
15:48
1013,5 hPa1008,8 hPa
00:08
1016,0 hPa
11:58
6,1 km/h
W
18,0 km/h
11:03  
1,2 l/m
2:00 Stunden
87 %80 %
17:28
92 %
08:58
12,9 klux52,8 klux
11:08
50 Min 
17.
Oktober
11,1 C8,9 C
03:19
14,8 C
14:49
1014,3 hPa1012,8 hPa
00:04
1016,8 hPa
23:35
19,8 km/h
W
49,7 km/h
17:09  
1,5 l/m
3:55 Stunden
84 %70 %
14:54
90 %
03:39
14,7 klux69,8 klux
13:29
1:10 Std 
18.
Oktober
10,6 C7,2 C
07:55
15,8 C
16:05
1018,9 hPa1016,8 hPa
00:00
1020,3 hPa
08:15
3,1 km/h
SO
15,5 km/h
16:30  
---
85 %70 %
16:20
92 %
10:30
23,6 klux62,2 klux
12:10
4:55 Std 
19.
Oktober
12,4 C6,8 C
04:11
18,2 C
16:21
1014,3 hPa1011,7 hPa
16:21
1019,2 hPa
00:06
11,1 km/h
W-SW
28,1 km/h
21:06  
---
80 %70 %
14:16
88 %
00:01
27,3 klux51,4 klux
13:51
7:15 Std 
20.
Oktober
15,4 C14,1 C
08:42
16,8 C
01:52
1014,0 hPa1012,9 hPa
01:52
1015,2 hPa
22:48
11,6 km/h
W-SW
34,0 km/h
22:28  
0,9 l/m
1:30 Stunden
84 %79 %
16:07
90 %
07:02
11,2 klux28,1 klux
11:32
10 Min 
21.
Oktober
14,3 C10,2 C
23:54
17,8 C
16:08
1015,7 hPa1014,8 hPa
23:59
1016,5 hPa
08:18
11,9 km/h
W-SW
33,6 km/h
13:58  
0,6 l/m
1:20 Stunden
81 %72 %
16:13
87 %
04:58
21,5 klux56,1 klux
12:03
3:40 Std 
22.
Oktober
15,7 C9,8 C
00:24
23,1 C
16:44
1010,1 hPa1005,7 hPa
23:19
1014,8 hPa
00:24
7,8 km/h
W-SW
31,9 km/h
12:29  
---
76 %54 %
16:49
92 %
08:24
24,4 klux57,8 klux
12:34
5:56 Std 
23.
Oktober
15,5 C13,9 C
23:55
18,8 C
00:44
1008,5 hPa1005,5 hPa
00:44
1013,3 hPa
23:55
14,4 km/h
W-SW
34,6 km/h
15:14  
14,6 l/m
5:46 Stunden
81 %67 %
00:29
88 %
08:44
13,5 klux51,4 klux
13:14
1:45 Std 
24.
Oktober
13,0 C8,4 C
23:46
15,7 C
15:40
1017,4 hPa1013,3 hPa
01:00
1020,1 hPa
23:16
4,4 km/h
W-SW
17,1 km/h
09:50  
0,6 l/m
1:16 Stunden
85 %81 %
16:05
89 %
11:20
13,0 klux58,4 klux
14:10
1:35 Std 
25.
Oktober
12,1 C6,9 C
03:11
16,5 C
23:42
1015,6 hPa1013,0 hPa
23:42
1019,2 hPa
00:46
5,3 km/h
W-SW
25,3 km/h
15:06  
1,1 l/m
1:30 Stunden
85 %76 %
16:01
92 %
09:26
7,3 klux34,1 klux
14:51
10 Min 
26.
Oktober
16,6 C14,6 C
04:12
18,6 C
14:12
1013,4 hPa1011,9 hPa
23:18
1015,2 hPa
10:02
14,7 km/h
W-SW
41,4 km/h
12:17  
7,1 l/m
6:30 Stunden
82 %73 %
01:47
90 %
09:47
15,3 klux57,6 klux
13:22
2:30 Std 
27.
Oktober
13,6 C10,4 C
15:03
16,0 C
00:03
1008,9 hPa1004,9 hPa
13:53
1012,1 hPa
01:13
25,0 km/h
W-SW
72,3 km/h
14:03  
7,3 l/m
4:25 Stunden
82 %72 %
14:03
89 %
02:08
14,3 klux56,0 klux
12:43
2:55 Std 
28.
Oktober
14,1 C11,5 C
00:19
17,3 C
11:34
1003,9 hPa999,4 hPa
11:24
1009,4 hPa
00:19
33,4 km/h
W-SW
67,0 km/h
11:34  
0,8 l/m
1:40 Stunden
74 %63 %
11:24
87 %
01:49
9,0 klux47,4 klux
10:24
1:20 Std 
29.
Oktober
10,6 C8,2 C
22:51
13,0 C
14:10
1013,7 hPa1009,4 hPa
00:00
1019,1 hPa
23:56
22,0 km/h
W-SW
56,9 km/h
11:05  
---
68 %56 %
15:25
75 %
05:00
24,4 klux62,1 klux
11:40
5:50 Std 
30.
Oktober
6,9 C0,7 C
23:57
11,9 C
15:41
1024,2 hPa1019,1 hPa
00:06
1028,4 hPa
23:57
11,0 km/h
W-SW
28,8 km/h
10:41  
---
74 %60 %
15:31
82 %
08:36
26,2 klux52,7 klux
12:06
7:40 Std 
31.
Oktober
4,4 C-1,2 C
07:22
12,9 C
15:32
1025,6 hPa1021,5 hPa
23:53
1028,7 hPa
08:02
4,2 km/h
SO
29,7 km/h
14:32  
---
77 %57 %
15:32
88 %
11:02
26,5 klux46,3 klux
11:32
8:15 Std 



Oktober
2013

Temperatur

  

Luftdruck

  

Wind

  

Regen

  

Luftfeuchte

  

Helligkeit

Sonnen-
schein

Min

Max

Min

Max

Max

Max

Min

Max

Max

Max

10,9 C

-1,2 C

07:22 Uhr
31.10.2013

23,1 C

16:44 Uhr
22.10.2013

1016,4 hPa

999,4 hPa

11:24 Uhr
28.10.2013

1028,7 hPa

08:02 Uhr
31.10.2013

9,6 km/h

W-SW

72,3 km/h

14:03 Uhr
27.10.2013

54,6 l/m

21:21 Stunden
05.10.2013

80 %

42 %

16:55 Uhr
03.10.2013

92 %

09:28 Uhr
06.10.2013

16,9 klux

74,1 klux

12:27 Uhr
10.10.2013

8:30 Std

am
03.10.2013

Gesamt

Gesamt

126,2 l/m

19 Tage
82:59 h

93:15 Std


Wetter-Diagramme Oktober 2013     Heinzenberg / Taunus   
TemperaturLuftfeuchte
SolarstrahlungLuftdruck
HelligkeitSonnenschein
RegenmengeRegendauer
Wind-GeschwindigkeitWind-Richtung